Weather History for Janesville, WI

Change the Weather History Date:

Wednesday, October 31, 2012

  Actual Average Record
Temperature  
Mean Temperature 40 °F -  
Max Temperature 50 °F 54 °F 73 °F (2000)
Min Temperature 30 °F 36 °F 18 °F (1988)
Degree Days  
Heating Degree Days 25    
Moisture  
Dew Point 22 °F    
Average Humidity 61    
Maximum Humidity 80    
Minimum Humidity 37    
Precipitation  
Precipitation 0.00 in - - ()
Sea Level Pressure  
Sea Level Pressure 29.85 in    
Wind  
Wind Speed 11 mph (NW)    
Max Wind Speed 17 mph    
Max Gust Speed 23 mph    
Visibility 10 miles    
Events      
Averages and records for this station are not official NWS values.
T = Trace of Precipitation, MM = Missing Value Source: NWS Daily Summary

Daily Weather History Graph

Daily Weather History Graph

Search for Another Location

Airport:

Trip Planner

Search our weather history database for the weather conditions in past years. The results will help you decide how hot, cold, wet, or windy it might be!

Date:

Astronomy

Oct. 31, 2012 Rise Set
Actual Time 7:29 AM CDT 5:49 PM CDT
Civil Twilight 7:00 AM CDT 6:18 PM CDT
Nautical Twilight 6:26 AM CDT 6:52 PM CDT
Astronomical Twilight 5:53 AM CDT 7:24 PM CDT
Moon 6:58 PM CDT (10/31) 9:12 AM CDT (10/31)
Length of Visible Light 11h 18m
Length of Day
10h 20m
Full, 97% of the Moon is Illuminated
Oct 31
Full
Nov 6
Last Quarter
Nov 13
New
Nov 20
First Quarter
Nov 28
Full

Hourly Weather History & Observations

Time (CDT) Temp. Windchill Dew Point Humidity Pressure Visibility Wind Dir Wind Speed Gust Speed Precip Events Conditions
12:15 AM 35.6 °F 27.5 °F 23.0 °F 60% 29.85 in 10.0 mi North 11.5 mph - N/A   Clear
12:35 AM 35.6 °F 26.6 °F 23.0 °F 60% 29.85 in 10.0 mi North 13.8 mph 18.4 mph N/A   Clear
12:55 AM 35.6 °F 27.5 °F 23.0 °F 60% 29.85 in 10.0 mi North 11.5 mph - N/A   Clear
1:15 AM 35.6 °F 27.5 °F 23.0 °F 60% 29.85 in 10.0 mi NNW 11.5 mph - N/A   Clear
1:35 AM 33.8 °F 24.3 °F 23.0 °F 65% 29.85 in 10.0 mi NNW 13.8 mph 18.4 mph N/A   Clear
1:55 AM 33.8 °F 23.9 °F 23.0 °F 65% 29.85 in 10.0 mi NNW 15.0 mph 19.6 mph N/A   Clear
2:15 AM 33.8 °F 25.3 °F 23.0 °F 65% 29.85 in 10.0 mi NNW 11.5 mph 17.3 mph N/A   Clear
2:35 AM 33.8 °F 25.8 °F 23.0 °F 65% 29.85 in 10.0 mi NNW 10.4 mph 16.1 mph N/A   Clear
2:55 AM 33.8 °F 24.8 °F 23.0 °F 65% 29.86 in 10.0 mi NNW 12.7 mph 16.1 mph N/A   Clear
3:15 AM 32.0 °F 24.2 °F 23.0 °F 69% 29.86 in 10.0 mi NNW 9.2 mph - N/A   Clear
3:35 AM 32.0 °F 23.6 °F 23.0 °F 69% 29.85 in 10.0 mi NNW 10.4 mph - N/A   Clear
3:55 AM 32.0 °F 23.6 °F 23.0 °F 69% 29.85 in 10.0 mi NNW 10.4 mph - N/A   Clear
4:15 AM 32.0 °F 24.2 °F 23.0 °F 69% 29.85 in 10.0 mi NW 9.2 mph - N/A   Clear
4:35 AM 32.0 °F 24.8 °F 24.8 °F 75% 29.85 in 10.0 mi NW 8.1 mph - N/A   Clear
4:55 AM 32.0 °F 25.6 °F 24.8 °F 75% 29.85 in 10.0 mi NNW 6.9 mph - N/A   Clear
5:15 AM 32.0 °F 25.6 °F 24.8 °F 75% 29.85 in 10.0 mi NW 6.9 mph - N/A   Clear
5:35 AM 30.2 °F 25.4 °F 23.0 °F 75% 29.85 in 10.0 mi NW 4.6 mph - N/A   Clear
5:45 AM 30.2 °F 20.8 °F 24.8 °F 80% 29.85 in 10.0 mi NW 11.5 mph - N/A   Clear
7:45 AM 30.2 °F 20.8 °F 24.8 °F 80% 29.86 in 10.0 mi NW 11.5 mph - N/A   Clear
8:45 AM 32.0 °F 23.0 °F 24.8 °F 75% 29.86 in 10.0 mi NW 11.5 mph - N/A   Clear
9:45 AM 37.4 °F 29.8 °F 26.6 °F 65% 29.85 in 10.0 mi NNW 11.5 mph 17.3 mph N/A   Clear
10:45 AM 41.0 °F 32.5 °F 26.6 °F 57% 29.85 in 10.0 mi NW 17.3 mph 23.0 mph N/A   Clear
12:45 PM 46.4 °F 40.1 °F 26.6 °F 46% 29.84 in 10.0 mi NW 15.0 mph 21.9 mph N/A   Clear
1:45 PM 48.2 °F - 28.4 °F 46% 29.83 in 10.0 mi NW 16.1 mph 23.0 mph N/A   Partly Cloudy
2:45 PM 50.0 °F - 28.4 °F 43% 29.81 in 10.0 mi NW 15.0 mph 23.0 mph N/A   Partly Cloudy
3:45 PM 50.0 °F - 26.6 °F 40% 29.81 in 10.0 mi WNW 17.3 mph 23.0 mph N/A   Partly Cloudy
5:45 PM 46.4 °F 41.9 °F 21.2 °F 37% 29.84 in 10.0 mi NW 9.2 mph - N/A   Clear
6:45 PM 37.4 °F 32.8 °F 17.6 °F 45% 29.87 in 10.0 mi NW 5.8 mph - N/A   Clear
7:45 PM 35.6 °F 30.7 °F 17.6 °F 48% 29.87 in 10.0 mi NW 5.8 mph - N/A   Clear
9:15 PM 33.8 °F 27.7 °F 17.6 °F 52% 29.87 in 10.0 mi NW 6.9 mph - N/A   Clear
9:35 PM 32.0 °F 25.6 °F 17.6 °F 55% 29.87 in 10.0 mi NW 6.9 mph - N/A   Clear
9:55 PM 32.0 °F 25.6 °F 17.6 °F 55% 29.87 in 10.0 mi NW 6.9 mph - N/A   Clear
10:15 PM 32.0 °F 26.4 °F 17.6 °F 55% 29.87 in 10.0 mi WNW 5.8 mph - N/A   Clear
10:35 PM 32.0 °F 26.4 °F 17.6 °F 55% 29.86 in 10.0 mi WNW 5.8 mph - N/A   Clear
10:55 PM 32.0 °F 27.5 °F 17.6 °F 55% 29.86 in 10.0 mi WNW 4.6 mph - N/A   Clear
11:15 PM 32.0 °F 24.8 °F 17.6 °F 55% 29.86 in 10.0 mi NW 8.1 mph - N/A   Clear
11:35 PM 32.0 °F 23.6 °F 19.4 °F 60% 29.87 in 10.0 mi NW 10.4 mph - N/A   Clear
11:55 PM 32.0 °F 23.6 °F 19.4 °F 60% 29.87 in 10.0 mi NW 10.4 mph - N/A   Clear